Other Surface Observations
Issued by NWS Upton, NY

Home | Current Version | Previous Version | Text Only | Print | Product List | Glossary On
Versions: 1 2 3 4 5 6 7 8 9 10 11 12 13 14 15 16 17 18 19 20 21 22 23 24 25 26 27 28 29 30 31 32 33 34 35 36 37 38 39 40 41 42 43 44 45 46 47 48 49 50
000
SXUS51 KOKX 161057
OSOOKX
NEW YORK CITY METROPOLITAN AREA WEATHER ROUNDUP
National Weather Service New York NY
600 AM EST SAT DEC 16 2017

CITY           SKY/WX    TMP DP  RH WIND       PRES   REMARKS
Central Park   CLEAR     26  16  65 W8        30.00R WCI  18
LaGuardia APRT PTCLDY    28  16  60 W15G24    29.99R WCI  16
Kennedy INTL   PTCLDY    26  18  71 W14       30.02R WCI  14
Newark Liberty PTCLDY    19  14  81 SW6       30.01R WCI  11
Teterboro APRT CLEAR     22  15  75 S8        29.99R WCI  12
Bronx Bot Gard   N/A     27  16  63 W17       29.98F WCI  14
Bronx Lehman C   N/A     27  18  69 W8          N/A  WCI  18
Queens College   N/A     28  18  64 W9          N/A  WCI  20
Breezy Point     N/A    N/A N/A N/A W16G25      N/A
Brooklyn Coll    N/A     28  18  64 W10         N/A  WCI  19
Staten Island    N/A     25  18  74 SW5         N/A  WCI  19

>>>>>>>>>>>>>>>>>>>>>>>>>>>>>>>>> KEY <<<<<<<<<<<<<<<<<<<<<<<<<<<<<<<
> SKY/WX - SKY CONDITION/PRESENT    : R : WCI - WIND CHILL INDEX    <
>          WEATHER                  : E : VSB - VISIBILITY IN MILES <
> TMP    - TEMPERATURE IN DEG F     : M : HX  - HEAT INDEX          <
> DP     - DEW POINT TEMPERATURE    : A : TC  - TEMPERATURE IN      <
> RH     - RELATIVE HUMIDITY        : R :       CELSIUS             <
> WIND   - DIRECTION/SPEED (MPH)    : K : VRB - VARIABLE WIND  DIR  <
> PRES   - PRESSURE (IN HG)         : S :                           <
>>>>>>>>>>>>>>>>>>>>>>>>>>>>>>>>> KEY <<<<<<<<<<<<<<<<<<<<<<<<<<<<<<<




USA.gov is the U.S. government's official web portal to all federal, state and local government web resources and services.